TimeEST,TemperatureF,Dew PointF,Humidity,Sea Level PressureIn,VisibilityMPH,Wind Direction,Wind SpeedMPH,Gust SpeedMPH,PrecipitationIn,Events,Conditions,WindDirDegrees,DateUTC
12:15 AM,32.0,23.9,72,30.28,10.0,South,8.1,-,N/A,,Clear,190,2013-01-19 05:15:00
12:35 AM,32.0,24.1,73,30.27,10.0,South,6.9,-,N/A,,Clear,190,2013-01-19 05:35:00
12:55 AM,32.4,24.4,73,30.27,10.0,South,6.9,-,N/A,,Clear,190,2013-01-19 05:55:00
1:15 AM,32.5,24.3,72,30.26,10.0,SSW,10.4,-,N/A,,Clear,200,2013-01-19 06:15:00
1:35 AM,32.4,24.3,72,30.27,10.0,SSW,8.1,-,N/A,,Clear,200,2013-01-19 06:35:00
1:55 AM,32.4,24.1,72,30.27,10.0,SSW,6.9,-,N/A,,Clear,200,2013-01-19 06:55:00
2:15 AM,32.2,24.1,72,30.27,10.0,SSW,6.9,-,N/A,,Clear,200,2013-01-19 07:15:00
2:35 AM,32.4,23.9,71,30.26,10.0,SSW,8.1,-,N/A,,Clear,200,2013-01-19 07:35:00
2:55 AM,32.0,23.9,72,30.26,10.0,South,9.2,-,N/A,,Clear,190,2013-01-19 07:55:00
3:15 AM,32.2,23.5,70,30.25,10.0,SSW,6.9,-,N/A,,Clear,200,2013-01-19 08:15:00
3:35 AM,32.0,23.0,69,30.26,10.0,South,6.9,-,N/A,,Clear,190,2013-01-19 08:35:00
3:55 AM,32.2,22.6,68,30.25,10.0,South,6.9,-,N/A,,Clear,190,2013-01-19 08:55:00
4:15 AM,32.5,22.5,66,30.24,10.0,South,9.2,-,N/A,,Clear,190,2013-01-19 09:15:00
4:35 AM,32.9,21.9,64,30.23,10.0,SSW,9.2,-,N/A,,Clear,200,2013-01-19 09:35:00
4:55 AM,33.1,21.7,63,30.22,10.0,SSW,10.4,16.1,N/A,,Clear,200,2013-01-19 09:55:00
5:15 AM,33.8,21.6,61,30.23,10.0,SSW,8.1,-,N/A,,Clear,210,2013-01-19 10:15:00
5:35 AM,33.6,21.6,61,30.22,10.0,SSW,12.7,16.1,N/A,,Clear,200,2013-01-19 10:35:00
5:55 AM,33.8,21.2,60,30.23,10.0,SSW,9.2,16.1,N/A,,Clear,200,2013-01-19 10:55:00
6:15 AM,33.1,21.2,62,30.23,10.0,SSW,8.1,-,N/A,,Scattered Clouds,200,2013-01-19 11:15:00
6:35 AM,32.9,21.2,62,30.22,10.0,SSW,8.1,-,N/A,,Clear,200,2013-01-19 11:35:00
6:55 AM,32.5,21.2,63,30.22,10.0,SSW,8.1,-,N/A,,Clear,200,2013-01-19 11:55:00
8:15 AM,33.4,21.2,61,30.23,10.0,SSW,8.1,-,N/A,,Clear,200,2013-01-19 13:15:00
8:55 AM,36.1,21.2,55,30.23,10.0,South,10.4,-,N/A,,Clear,190,2013-01-19 13:55:00
9:15 AM,37.6,21.2,52,30.24,10.0,SSW,8.1,-,N/A,,Clear,210,2013-01-19 14:15:00
9:35 AM,38.8,21.2,49,30.24,10.0,SSW,10.4,-,N/A,,Clear,200,2013-01-19 14:35:00
10:35 AM,42.8,23.0,46,30.23,10.0,SSW,9.2,-,N/A,,Clear,200,2013-01-19 15:35:00
10:55 AM,44.6,22.8,42,30.22,10.0,SSW,10.4,18.4,N/A,,Clear,210,2013-01-19 15:55:00
11:15 AM,45.9,23.4,41,30.21,10.0,SW,13.8,23.0,N/A,,Clear,220,2013-01-19 16:15:00
11:35 AM,46.8,23.0,39,30.19,10.0,SW,11.5,21.9,N/A,,Clear,220,2013-01-19 16:35:00
12:15 PM,48.6,24.1,38,30.16,10.0,SSW,11.5,20.7,N/A,,Clear,210,2013-01-19 17:15:00
12:35 PM,49.5,23.7,37,30.14,10.0,SW,15.0,21.9,N/A,,Clear,220,2013-01-19 17:35:00
12:55 PM,50.4,23.4,35,30.12,10.0,SSW,15.0,21.9,N/A,,Clear,210,2013-01-19 17:55:00
1:15 PM,51.6,23.7,34,30.10,10.0,SW,13.8,20.7,N/A,,Clear,220,2013-01-19 18:15:00
1:35 PM,52.3,24.3,34,30.09,10.0,SSW,11.5,21.9,N/A,,Clear,200,2013-01-19 18:35:00
1:55 PM,52.7,23.7,32,30.08,10.0,SW,10.4,20.7,N/A,,Clear,220,2013-01-19 18:55:00
2:35 PM,53.6,23.2,31,30.05,10.0,SSW,16.1,24.2,N/A,,Clear,210,2013-01-19 19:35:00
2:55 PM,54.1,22.3,29,30.04,10.0,SSW,13.8,21.9,N/A,,Clear,210,2013-01-19 19:55:00
3:15 PM,54.7,23.5,30,30.03,10.0,SSW,11.5,18.4,N/A,,Clear,200,2013-01-19 20:15:00
3:35 PM,54.0,23.2,30,30.02,10.0,SSW,8.1,20.7,N/A,,Clear,200,2013-01-19 20:35:00
3:55 PM,54.0,23.2,30,30.01,10.0,SSW,13.8,20.7,N/A,,Clear,200,2013-01-19 20:55:00
4:15 PM,53.6,23.5,31,30.01,10.0,SSW,8.1,18.4,N/A,,Clear,210,2013-01-19 21:15:00
4:35 PM,52.9,22.6,31,29.99,10.0,SSW,11.5,19.6,N/A,,Clear,200,2013-01-19 21:35:00
4:55 PM,52.5,22.5,31,29.99,10.0,SSW,12.7,20.7,N/A,,Clear,210,2013-01-19 21:55:00
5:15 PM,51.4,22.1,32,29.99,10.0,SSW,10.4,16.1,N/A,,Clear,200,2013-01-19 22:15:00
5:35 PM,50.9,21.7,32,29.99,10.0,SSW,10.4,19.6,N/A,,Clear,210,2013-01-19 22:35:00
5:55 PM,50.4,21.7,33,29.98,10.0,SSW,10.4,19.6,N/A,,Clear,210,2013-01-19 22:55:00
6:15 PM,50.0,21.7,33,29.97,10.0,SSW,9.2,19.6,N/A,,Clear,210,2013-01-19 23:15:00
6:35 PM,49.1,21.9,34,29.97,10.0,SSW,8.1,-,N/A,,Clear,210,2013-01-19 23:35:00
6:55 PM,48.4,22.3,36,29.97,10.0,SSW,8.1,-,N/A,,Clear,200,2013-01-19 23:55:00
7:15 PM,47.1,22.8,38,29.97,10.0,South,9.2,-,N/A,,Clear,190,2013-01-20 00:15:00
7:35 PM,46.9,23.2,39,29.96,10.0,SSW,8.1,-,N/A,,Clear,200,2013-01-20 00:35:00
7:55 PM,46.6,23.7,41,29.95,10.0,SSW,9.2,16.1,N/A,,Clear,200,2013-01-20 00:55:00
8:15 PM,46.6,23.7,41,29.95,10.0,SSW,9.2,-,N/A,,Clear,200,2013-01-20 01:15:00
8:35 PM,47.3,23.5,39,29.94,10.0,SW,9.2,18.4,N/A,,Clear,220,2013-01-20 01:35:00
8:55 PM,46.8,23.5,40,29.94,10.0,SSW,11.5,-,N/A,,Clear,210,2013-01-20 01:55:00
9:15 PM,46.4,23.7,41,29.94,10.0,SSW,11.5,18.4,N/A,,Clear,210,2013-01-20 02:15:00
9:35 PM,46.4,23.9,41,29.94,10.0,SSW,8.1,16.1,N/A,,Clear,210,2013-01-20 02:35:00
9:55 PM,46.0,24.6,43,29.95,10.0,SW,10.4,-,N/A,,Clear,220,2013-01-20 02:55:00
10:15 PM,46.2,24.6,43,29.94,10.0,SW,10.4,18.4,N/A,,Clear,220,2013-01-20 03:15:00
10:35 PM,45.7,25.0,44,29.94,10.0,SSW,10.4,16.1,N/A,,Clear,210,2013-01-20 03:35:00
10:55 PM,45.5,25.3,45,29.94,10.0,SSW,9.2,16.1,N/A,,Clear,210,2013-01-20 03:55:00
11:15 PM,44.8,25.5,47,29.94,10.0,SSW,9.2,-,N/A,,Clear,210,2013-01-20 04:15:00
11:35 PM,45.0,25.7,47,29.93,10.0,SW,8.1,-,N/A,,Clear,220,2013-01-20 04:35:00
11:55 PM,44.8,26.1,48,29.93,10.0,SW,9.2,16.1,N/A,,Clear,220,2013-01-20 04:55:00